EW7069 Weather Reports


Display with metric or nautical units.
time (UTC)temp
F
wind
direction
speed
MPH
gust
MPH
rain 1hr
in
rain 24hr
in
rain mn
in
humidity
%
barometer
mb
20260505202002 54 1 6.0 14.0 0.00 0.31 0.05 43 1001.1
20260505201003 54 1 5.0 8.0 0.00 0.31 0.05 44 1001.2
20260505200002 54 353 6.0 11.0 0.00 0.31 0.05 44 1001.1
20260505195003 54 343 7.0 11.0 0.00 0.31 0.05 46 1001.2
20260505194003 54 311 5.0 8.0 0.00 0.31 0.05 52 1001.6
20260505193003 54 292 5.0 8.0 0.00 0.31 0.05 53 1001.8
20260505191003 54 292 5.0 8.0 0.00 0.31 0.05 55 1001.9
20260505190004 53 297 5.0 9.0 0.00 0.31 0.05 59 1001.9
20260505185003 52 315 4.0 7.0 0.00 0.31 0.05 60 1001.4
20260505184002 52 314 5.0 8.0 0.00 0.31 0.05 60 1001.4
20260505183003 52 280 4.0 7.0 0.00 0.31 0.05 61 1001.2
20260505182002 51 270 5.0 8.0 0.00 0.31 0.05 61 1001.2
20260505181003 51 270 4.0 6.0 0.00 0.31 0.05 61 1001.3
20260505180003 51 270 5.0 8.0 0.00 0.31 0.05 62 1001.4
20260505175003 51 270 5.0 8.0 0.00 0.31 0.05 62 1001.4
20260505174003 51 306 6.0 8.0 0.00 0.31 0.05 62 1001.5
20260505173003 50 314 6.0 11.0 0.00 0.31 0.05 64 1001.3
20260505172002 50 314 4.0 5.0 0.00 0.31 0.05 67 1001.0
20260505171003 49 314 5.0 7.0 0.01 0.31 0.05 68 1000.6
20260505170003 48 314 4.0 5.0 0.01 0.31 0.05 70 1000.5
20260505165002 48 314 4.0 5.0 0.01 0.31 0.05 71 1000.3
20260505164003 48 314 3.0 5.0 0.01 0.31 0.05 71 1000.0
20260505163003 47 314 4.0 8.0 0.01 0.31 0.05 70 999.6
20260505161003 48 314 4.0 6.0 0.00 0.30 0.04 67 999.9
20260505153004 51 314 7.0 11.0 0.00 0.30 0.04 55 999.7
20260505152003 52 359 7.0 10.0 0.00 0.30 0.04 52 999.7
20260505151004 53 1 8.0 15.0 0.00 0.30 0.04 50 999.5
20260505125003 58 1 5.0 8.0 0.00 0.30 0.04 44 998.2
20260505124003 57 1 5.0 7.0 0.00 0.30 0.04 47 998.0
20260505123004 56 1 5.0 7.0 0.00 0.30 0.04 51 997.7
20260505122004 55 1 4.0 6.0 0.00 0.30 0.04 55 997.7
20260505121003 54 1 6.0 8.0 0.00 0.30 0.04 59 997.6
20260505120004 54 1 6.0 11.0 0.00 0.30 0.04 63 997.7
20260505115003 53 1 5.0 12.0 0.00 0.30 0.04 73 997.6
20260505114004 53 5 6.0 11.0 0.00 0.30 0.04 78 997.7
20260505113003 53 22 5.0 8.0 0.00 0.30 0.04 80 997.5
20260505112003 53 22 5.0 11.0 0.00 0.30 0.04 81 997.3
20260505111003 53 230 5.0 11.0 0.00 0.30 0.04 82 997.4
20260505102004 54 314 7.0 11.0 0.00 0.30 0.04 81 997.0
20260505101003 54 341 7.0 11.0 0.00 0.30 0.04 81 997.2
20260505095004 54 1 4.0 7.0 0.00 0.30 0.04 81 996.9
20260505094003 54 1 5.0 9.0 0.00 0.30 0.04 81 997.0
20260505092004 55 1 5.0 9.0 0.00 0.30 0.04 81 997.0
20260505091003 55 1 5.0 11.0 0.00 0.30 0.04 81 996.7
20260505090004 55 1 5.0 8.0 0.00 0.30 0.04 82 996.6
20260505085004 55 1 5.0 9.0 0.00 0.30 0.04 83 996.6
20260505083003 55 249 7.0 10.0 0.00 0.30 0.04 87 996.7
20260505082003 55 271 8.0 15.0 0.00 0.30 0.04 88 996.6
20260505081004 54 314 4.0 7.0 0.00 0.30 0.04 89 996.4
20260505080003 54 305 5.0 9.0 0.00 0.30 0.04 89 996.5
20260505074002 54 135 3.0 7.0 0.00 0.30 0.04 89 996.7
20260505072003 53 135 2.0 4.0 0.00 0.30 0.04 89 998.6
20260505071002 53 135 0.0 2.0 0.00 0.30 0.04 89 998.6
20260505070002 53 135 1.0 2.0 0.00 0.30 0.04 89 998.7
20260505065002 53 135 1.0 2.0 0.00 0.30 0.04 89 998.7
20260505064002 54 135 1.0 2.0 0.00 0.30 0.04 88 998.7
20260505063002 54 135 0.0 2.0 0.01 0.30 0.04 88 998.7
20260505062003 54 135 0.0 2.0 0.01 0.30 0.04 87 998.8
20260505061002 54 135 2.0 2.0 0.01 0.30 0.04 87 998.9
20260505060003 54 135 1.0 3.0 0.01 0.30 0.04 87 999.1
20260505055002 54 135 0.0 3.0 0.02 0.30 0.04 86 999.2
20260505054002 54 135 3.0 6.0 0.04 0.30 0.04 86 999.4
20260505053003 54 135 3.0 7.0 0.02 0.28 0.02 85 999.4
20260505051002 55 135 3.0 5.0 0.02 0.28 0.02 84 998.9
20260505041002 55 135 4.0 4.0 0.13 0.26 0.00 79 999.0
20260505035003 58 143 12.0 17.0 0.07 0.20 0.20 70 999.2
20260505034002 59 266 12.0 17.0 0.05 0.18 0.18 65 999.0
20260505033003 64 270 14.0 24.0 0.01 0.14 0.14 52 998.7
20260505032002 65 261 12.0 18.0 0.00 0.13 0.13 52 998.2
20260505031002 64 225 9.0 15.0 0.00 0.13 0.13 54 997.3
20260505030002 63 225 6.0 12.0 0.00 0.13 0.13 56 996.9
20260505025002 62 225 3.0 6.0 0.00 0.13 0.13 58 996.1
20260505024003 62 225 2.0 6.0 0.00 0.13 0.13 59 995.3
20260505023002 62 225 1.0 2.0 0.00 0.13 0.13 59 994.8
20260505022003 64 225 5.0 8.0 0.00 0.13 0.13 56 995.7
20260505021002 64 333 6.0 10.0 0.00 0.13 0.13 54 996.1
20260505020003 64 352 5.0 8.0 0.00 0.13 0.13 54 996.2
20260505013002 63 292 4.0 6.0 0.00 0.13 0.13 58 999.2
20260505011002 62 291 5.0 7.0 0.00 0.13 0.13 61 1001.9
20260505003003 62 291 4.0 7.0 0.00 0.13 0.13 68 997.3
20260505002002 62 292 4.0 8.0 0.00 0.13 0.13 68 997.5
20260505001003 62 292 6.0 9.0 0.00 0.13 0.13 69 998.0
20260504235002 61 292 3.0 5.0 0.02 0.13 0.13 73 998.6
20260504234004 61 291 4.0 7.0 0.02 0.13 0.13 75 998.2
20260504233002 60 293 8.0 16.0 0.12 0.13 0.13 74 997.6
20260504232003 60 292 7.0 11.0 0.13 0.13 0.13 75 998.1
20260504231003 59 292 5.0 11.0 0.13 0.13 0.13 74 998.7
20260504225002 61 292 4.0 6.0 0.11 0.11 0.11 67 1000.0
20260504224003 64 287 9.0 18.0 0.11 0.11 0.11 56 1001.0
20260504222003 77 223 8.0 15.0 0.00 0.00 0.00 25 1001.8
20260504221003 80 351 7.0 13.0 0.00 0.00 0.00 24 1001.5
20260504220002 79 289 12.0 20.0 0.00 0.00 0.00 25 1000.2
20260504214003 76 225 8.0 12.0 0.00 0.00 0.00 28 998.0
20260504213003 77 262 8.0 11.0 0.00 0.00 0.00 25 997.8
20260504212003 79 229 8.0 12.0 0.00 0.00 0.00 25 997.5
20260504211003 77 235 9.0 15.0 0.00 0.00 0.00 27 996.9
20260504210003 78 315 12.0 15.0 0.00 0.00 0.00 26 996.6
20260504205003 79 230 8.0 15.0 0.00 0.00 0.00 24 996.1
20260504204002 77 250 9.0 11.0 0.00 0.00 0.00 25 995.5